Regional Weather Roundup
Issued by NWS

Home | Current Version | Previous Version | Graphics & Text | Print | Product List | Glossary On
Versions: 1 2 3 4 5 6 7 8 9 10 11 12 13 14 15 16 17 18 19 20 21 22 23 24 25 26 27 28 29 30 31 32 33 34 35 36 37 38 39 40 41 42 43 44 45 46 47 48 49 50
000
ASUS45 KBOU 031907
RWRCO

WEATHER ROUNDUP FOR COLORADO
NATIONAL WEATHER SERVICE DENVER/BOULDER CO
100 PM MDT THU SEP 03 2015

NOTE: "FAIR" INDICATES FEW OR NO CLOUDS BELOW 12000 FEET WITH NO
SIGNIFICANT WEATHER AND/OR OBSTRUCTIONS TO VISIBILITY.

COZ001>005-013-030-031-032000-
...NORTHWEST COLORADO...

CITY           SKY/WX    TMP DP  RH WIND       PRES   REMARKS
CRAIG          CLOUDY    78  47  33 S9        30.10F
HAYDEN         CLOUDY    73  41  31 SW10      30.13S
MEEKER         CLOUDY    73  48  41 S16G26    30.14S
MOUNT WERNER   NOT AVBL
STEAMBOAT SPGS CLOUDY    70  45  39 W8        30.16S
WALDEN         CLOUDY    70  34  26 W7        30.21S
$$

COZ006>008-011-032000-
...WEST CENTRAL VALLEYS...

CITY           SKY/WX    TMP DP  RH WIND       PRES   REMARKS
GRAND JUNCTION PTSUNNY   75  52  44 SE25G35   30.08F
MONTROSE       CLOUDY    66  54  65 NW6       30.20F
EAGLE          RAIN      61  52  72 N12G18    30.25R
RIFLE          RAIN      60  56  86 E10       30.18R FOG
DELTA          CLOUDY    71  55  55 E6        30.16F HAZE
NUCLA          CLOUDY    75  46  35 NE7       30.17F
$$

COZ017>023-064>068-032000-
...SOUTHWEST COLORADO...

CITY           SKY/WX    TMP DP  RH WIND       PRES   REMARKS
DURANGO        MOSUNNY   76  44  32 MISG      30.19F
CORTEZ         MOSUNNY   79  46  31 SW13      30.14F
PAGOSA SPRINGS PTSUNNY   70  42  35 CALM      30.27F
TELLURIDE      LGT RAIN  58  47  65 CALM      30.37F
WOLF CREEK PAS NOT AVBL
$$

COZ009-010-012-014-032>034-037-058>063-032000-
...CENTRAL COLORADO...

CITY           SKY/WX    TMP DP  RH WIND       PRES   REMARKS
ASPEN          CLOUDY    57  52  83 VRB3      30.31F
BUENA VISTA    PTSUNNY   69  42  36 NW18G25   30.24F
COPPER MTN     RAIN      45  37  76 S6        30.54S
BERTHOUD PASS  TSTM      43  32  65 MISG      30.55F
COTTONWOOD PAS PTSUNNY   61  41  48 W7        30.37F
GUNNISON       CLOUDY    55  52  88 W3        30.33F
KREMMLING      CLOUDY    68  45  42 SE3       30.21S THUNDER
LEADVILLE      CLOUDY    50  46  86 N5        30.40F
MONARCH PASS   RAIN      45  41  87 W18       30.62S
SALIDA         CLOUDY    71  45  39 W6        30.28F
SUNLIGHT       LGT RAIN  48  46  93 CALM      30.50S
WILKERSON PASS CLOUDY    54  39  58 SW3       30.49F
$$

COZ069>075-032000-
...SAN LUIS VALLEY/SANGRE DE CRISTO MOUNTAINS...

CITY           SKY/WX    TMP DP  RH WIND       PRES   REMARKS
ALAMOSA        PTSUNNY   69  47  45 S5        30.21F
LA VETA PASS   PTSUNNY   63  43  48 S15G22    30.38F
SAGUACHE       CLOUDY    70  45  40 NW10G18   30.25F THUNDER
$$

COZ035-036-038>040-032000-
...NORTHERN COLORADO FRONT RANGE...

CITY           SKY/WX    TMP DP  RH WIND       PRES   REMARKS
DENVER INTL AP CLOUDY    82  42  24 E10       30.03F
DMNS CITY PARK   N/A     82  42  24 E6G13     30.01F
AURORA         PTSUNNY   82  45  27 NE7       30.05F
FRONT RANGE AP CLOUDY    81  41  24 NE10G16   30.06F
ERIE MUNI ARPT CLOUDY    83  41  22 SE10      30.01F
BOULDER MUN AP CLOUDY    82  43  24 SE7       30.01F
CENTENNIAL     PTSUNNY   78  44  29 VRB5      30.06F
BROOMFIELD     NOT AVBL
FORT COLLINS   CLOUDY    79  48  34 SE17      30.00F
LONGMONT       CLOUDY    84  45  25 SE8       30.02F
$$

COZ041-046-047-076>085-087-088-032000-
...PIKES PEAK/PALMER DIVIDE AND SOUTHERN FOOTHILLS...

CITY           SKY/WX    TMP DP  RH WIND       PRES   REMARKS
COLO. SPRINGS  PTSUNNY   84  43  23 N14       30.07F
A. F. ACADEMY  PTSUNNY   79  42  26 NE9G25    30.09F
ELLICOTT       MOSUNNY  N/A N/A N/A NE12G20   30.04F
FALCON         MOSUNNY   78  43  28 MISG      30.13F
FORT CARSON    MOSUNNY   84  46  26 NE13G21   30.03F
LIMON          PTSUNNY   85  45  24 N18G25    30.01F
MONUMENT HILL  PTSUNNY   73  41  31 N13G18    30.14F
TRINIDAD       PTSUNNY   87  41  19 VRB3      30.01F
$$

COZ042>045-048>051-090-091-032000-
...NORTHEAST COLORADO...

CITY           SKY/WX    TMP DP  RH WIND       PRES   REMARKS
GREELEY ARPT   CLOUDY    81  52  36 SE12      30.00F
AKRON          CLOUDY    85  45  24 NW16      29.95F
BURLINGTON     PTSUNNY   89  51  27 S8        29.91F
WRAY           CLOUDY    95  44  17 E9        29.87S
STERLING       CLOUDY    81  54  39 SW10      29.93R
HOLYOKE        SUNNY     99  50  19 SE3       29.87F
FORT MORGAN    CLOUDY    78  49  36 NW12      29.99F
$$

COZ086-089-092>099-032000-
...SOUTHEAST COLORADO...

CITY           SKY/WX    TMP DP  RH WIND       PRES   REMARKS
PUEBLO         PTSUNNY   92  43  18 N14       29.92F
LA JUNTA       PTSUNNY   94  44  17 SW10      29.88F
LAMAR          PTSUNNY   94  51  23 NE7       29.84F
SPRINGFIELD      N/A     91  47  21 S14G20    29.93F
$$



USA.gov is the U.S. government's official web portal to all federal, state and local government web resources and services.